Flag for U.S.A. Weather past 2 weeks in Anchorage, Alaska, U.S.A.

Now
38 °F

Overcast.


Feels Like: 38 °F
Forecast: 38 / 47 °F
Wind: No wind

Location: Lake Hood Seaplane


UV Index: 0 (Low)

Visibility: 10 mi


Pressure: 29.41 "Hg

Humidity: 76%

Dew point: 31 °F

Location of AnchorageLocation

Historic Weather in Anchorage

°F

Anchorage temperature yesterday

Maximum temperature yesterday: 50 °F (at 3:53 PM)
Minimum temperature yesterday: 32 °F (at 6:53 AM)
Average temperature yesterday: 41 °F

Past Weeks' High & Low Weather Summary

 TemperatureHumidityPressure
High50 °F (Apr 17, 3:53 PM)93% (Apr 7, 9:58 AM)30.28 "Hg (Apr 7, 9:58 AM)
Low17 °F (Apr 10, 4:53 AM)31% (Apr 9, 7:53 PM)29.23 "Hg (Apr 7, 5:53 PM)
Average34 °F61%29.74 "Hg
* Reported Apr 3 4:53 AM — Apr 18 4:53 AM, Anchorage, Weather by CustomWeather, © 2014

Note: Actual official high and low records may vary slightly from our data, if they occured in-between our weather recording intervals... More about our weather records

Advertising

Historic Weather Conditions — Data for Previous 24 hours

 ConditionsComfort  
Time TempWeatherWind HumidityBarometerVisibility
4:53 AM
Apr 18
38 °FOvercast.No wind79%29.40 "Hg10 mi
3:53 AM37 °FMostly cloudy.No wind76%29.40 "Hg10 mi
2:53 AM38 °FOvercast.No wind76%29.40 "Hg10 mi
1:53 AM38 °FOvercast.No wind73%29.39 "Hg10 mi
12:53 AM40 °FMostly cloudy.3 mph68%29.38 "Hg10 mi
11:53 PM
Apr 17
42 °FOvercast.3 mph60%29.37 "Hg10 mi
10:53 PM39 °FPartly cloudy.No wind65%29.36 "Hg10 mi
9:53 PM42 °FScattered clouds.No wind57%29.36 "Hg10 mi
8:53 PM45 °FPassing clouds.No wind49%29.35 "Hg10 mi
7:53 PM47 °FPassing clouds.7 mph44%29.34 "Hg10 mi
6:53 PM50 °FSunny.5 mph41%29.34 "Hg10 mi
5:53 PM49 °FBroken clouds.No wind43%29.34 "Hg10 mi
4:53 PM49 °FSunny.3 mph43%29.35 "Hg10 mi
3:53 PM50 °FScattered clouds.5 mph43%29.36 "Hg10 mi
2:53 PM47 °FSunny.5 mph46%29.37 "Hg10 mi
1:53 PM48 °FSunny.5 mph46%29.38 "Hg10 mi
12:53 PM46 °FSunny.3 mph50%29.39 "Hg10 mi
11:53 AM42 °FSunny.3 mph60%29.41 "Hg10 mi
10:53 AM42 °FSunny.No wind60%29.42 "Hg10 mi
9:53 AM38 °FSunny.3 mph65%29.43 "Hg10 mi
8:53 AM36 °FSunny.6 mph67%29.44 "Hg10 mi
7:53 AM35 °FSunny.5 mph75%29.46 "Hg10 mi
6:53 AM32 °FPassing clouds.No wind88%29.48 "Hg10 mi
Weather by CustomWeather, © 2014

See weather overview